Flag for U.S.A. Weather past 2 weeks in Pembroke Pines, Florida, U.S.A.

78 °F

Partly sunny.

Feels Like: 80 °F
Forecast: 71 / 80 °F
Wind: 20 mph from East

Location: North Perry Airport

Current Time: Nov 26, 2015 at 9:25:10 AM

Latest Report: Nov 26, 2015 at 8:53 AM

Visibility: 10 mi

Pressure: 30.28 "Hg

Humidity: 58%

Dew point: 62 °F

Location of Pembroke PinesLocation

Historic Weather in Pembroke Pines — Graph


Pembroke Pines temperature yesterday

Maximum temperature yesterday: 79 °F (at 12:53 PM)
Minimum temperature yesterday: 70 °F (at 8:53 PM)
Average temperature yesterday: 75 °F

Past Weeks' High & Low Weather Summary

High88 °F (Nov 12, 11:53 AM)97% (Nov 12, 5:53 AM)30.26 "Hg (Nov 12, 5:53 AM)
Low61 °F (Nov 24, 3:53 AM)47% (Nov 24, 11:53 AM)29.80 "Hg (Nov 22, 2:53 PM)
Average77 °F76%30.05 "Hg
* Reported Nov 11 7:53 AM — Nov 26 7:53 AM, Pembroke Pines, Weather by CustomWeather, © 2015

Note: Actual official high and low records may vary slightly from our data, if they occured in-between our weather recording intervals... More about our weather records


Pembroke Pines weather history for previous 24 hours

Time TempWeatherWind HumidityBarometerVisibility
7:53 AM
Thu, Nov 26
76 °FPartly sunny.24 mph62%30.26 "Hg10 mi
6:53 AM75 °FPartly sunny.20 mph66%30.24 "Hg10 mi
5:53 AM75 °FPassing clouds.16 mph64%30.22 "Hg10 mi
4:53 AM75 °FPassing clouds.20 mph66%30.21 "Hg10 mi
3:53 AM74 °FPassing clouds.16 mph69%30.21 "Hg10 mi
2:53 AM75 °FPassing clouds.17 mph64%30.21 "Hg10 mi
1:53 AM75 °FPassing clouds.17 mph64%30.23 "Hg10 mi
12:53 AM75 °FMostly cloudy.17 mph64%30.24 "Hg10 mi
11:53 PM
Wed, Nov 25
75 °FPartly cloudy.22 mph64%30.25 "Hg10 mi
10:53 PM75 °FMostly cloudy.21 mph66%30.24 "Hg10 mi
9:53 PM74 °FPartly cloudy.18 mph69%30.24 "Hg10 mi
8:53 PM70 °FLight rain. Mostly cloudy.13 mph84%30.24 "Hg10 mi
7:53 PM73 °FPassing clouds.18 mph74%30.23 "Hg10 mi
6:53 PM75 °FPassing clouds.17 mph66%30.21 "Hg10 mi
5:53 PM75 °FPassing clouds.21 mph66%30.20 "Hg10 mi
4:53 PM76 °FPartly sunny.21 mph62%30.20 "Hg10 mi
3:53 PM77 °FPartly sunny.18 mph58%30.19 "Hg10 mi
2:53 PM76 °FBroken clouds.21 mph67%30.19 "Hg10 mi
1:53 PM73 °FLight rain. Cloudy.17 mph71%30.19 "Hg9 mi
12:53 PM79 °FLight rain. Mostly cloudy.18 mph60%30.20 "Hg10 mi
11:53 AM78 °FBroken clouds.21 mph58%30.22 "Hg10 mi
10:53 AM72 °FMostly cloudy.6 mph71%30.25 "Hg10 mi
9:53 AM77 °FBroken clouds.24 mph58%30.24 "Hg10 mi
Weather by CustomWeather, © 2015

See weather overviewHow to use our weather pages